Regional Weather Roundup
Issued by NWS

Home | Current Version | Previous Version | Graphics & Text | Print | Product List | Glossary On
Versions: 1 2 3 4 5 6 7 8 9 10 11 12 13 14 15 16 17 18 19 20 21 22 23 24 25 26 27 28 29 30 31 32 33 34 35 36 37 38 39 40 41 42 43 44 45 46 47 48 49
190
ASUS45 KTFX 080210
RWRMT
MONTANA REGIONAL WEATHER ROUNDUP
NATIONAL WEATHER SERVICE GREAT FALLS MT
700 PM MST SUN FEB 07 2016

NOTE: "FAIR" INDICATES FEW OR NO CLOUDS BELOW 12000 FEET WITH NO
SIGNIFICANT WEATHER AND/OR OBSTRUCTIONS TO VISIBILITY.

MTZ001>007-043-080300-
WEST OF THE DIVIDE

CITY           SKY/WX    TMP DP  RH WIND       PRES   REMARKS
KALISPELL      CLOUDY    34  28  79 N3        30.59R
MISSOULA       CLOUDY    34  26  72 N3        30.59S
BUTTE          CLOUDY    29  18  63 N6        30.52S WCI  23
MULLAN PASS    CLOUDY    27  17  66 SW5       30.53S
ANACONDA         N/A     30  16  55 SW3       30.54R
DEER LODGE       N/A     32  18  55 W5        30.56R
HAMILTON         N/A     37  25  60 CALM      30.57S
LIBBY            N/A     36  28  75 CALM      30.61R
$$

MTZ008-052>055-080300-
SOUTHWEST MONTANA

CITY           SKY/WX    TMP DP  RH WIND       PRES   REMARKS
BOZEMAN        CLOUDY    31  20  63 NW3       30.50R
DILLON         CLOUDY    32  20  61 SW3       30.51R
ENNIS          CLOUDY    36  16  44 S6        30.56R WCI  31
$$

MTZ009-010-012-014-046-048-049-054-080300-
EAST SLOPES AND CENTRAL MONTANA

CITY           SKY/WX    TMP DP  RH WIND       PRES   REMARKS
CUT BANK       PTCLDY    34  16  47 W8        30.39S WCI  27
GREAT FALLS    CLOUDY    37  12  35 SW3       30.42F
MALMSTROM AFB  CLOUDY    37  14  39 S5        30.42F
HELENA         CLOUDY    41  15  35 W8        30.49S
CHOTEAU          N/A     37  12  35 SW5       30.41S
CONRAD           N/A     36  17  46 W3        30.38S
$$

MTZ011-013-016-021-045-047-050-051-080300-
NORTH CENTRAL MONTANA

CITY           SKY/WX    TMP DP  RH WIND       PRES   REMARKS
HAVRE          CLEAR     22  15  75 SE5       30.44F
LEWISTOWN      CLEAR     25  11  55 S7        30.41F WCI  17
N BAR RANCH      N/A     27   7  43 W7        30.43S WCI  19
CHINOOK          N/A     28  12  50 CALM      30.44F
$$

MTZ017>020-022>027-061-062-080300-
NORTHEAST MONTANA

CITY           SKY/WX    TMP DP  RH WIND       PRES   REMARKS
GLASGOW        CLEAR     29  18  63 NW15      30.39R WCI  18
JORDAN           N/A     31  19  61 NW13      30.42R WCI  21
SIDNEY         CLEAR     32  16  51 NW20G26   30.31R WCI  20
WOLF POINT     CLEAR     32  19  58 NW15      30.37R WCI  22
PLENTYWOOD       N/A     27  19  74 NW17      30.30R WCI  14
POPLAR           N/A     30  19  64 W15       30.36R WCI  19
$$

MTZ028>42-056>058-080300-
SOUTHCENTRAL AND SOUTHEAST MONTANA

CITY           SKY/WX    TMP DP  RH WIND       PRES   REMARKS
BAKER          CLEAR     30  12  47 NW21G30   30.31R WCI  17
BILLINGS       MOCLDY    34   8  33 NE3       30.45R
LIVINGSTON     CLOUDY    37  13  37 NW13      30.45R WCI  29
MILES CITY     CLEAR     33  14  45 NW18      30.40R WCI  22
FORSYTH          N/A     32  14  47 W5        30.44R
LAUREL           N/A     35   8  32 N1        30.39
ROUNDUP          N/A     32   6  33 CALM      30.32S
$$

REGIONAL REPORTS...DAKOTAS

CITY           SKY/WX    TMP DP  RH WIND       PRES   REMARKS
WILLISTON      CLEAR     31  18  58 NW28G37   30.27R WCI  17
MINOT          FLURRIES  31  16  54 NW26G36   30.13R WCI  17
DICKINSON      CLEAR     29  14  53 NW24G33   30.19R WCI  15
BEACH            N/A     28  16  59 NW21      30.32R WCI  15
CROSBY           N/A     27  19  74 NW22G39   30.27R WCI  12
TIOGA            N/A     27  23  86 NW21G30   30.26R WCI  13
WATFORD CITY     N/A     30  18  59 NW22G29   30.26R WCI  17
BISMARCK       CLOUDY    36  20  52 N22G32    30.11R WCI  25
GRAND FORKS    LGT SNOW  14   8  77 N32G40    30.00R BLWGSNOWWCI  -7
FARGO          LGT SNOW  17  12  80 N25G35    29.97S WCI  -1
BUFFALO SD       N/A     30  14  51 NW25      30.21R WCI  16
RAPID CITY     CLEAR     33   9  36 NW30G46   30.25R WCI  19
$$

REGIONAL REPORTS...WYOMING/IDAHO/WASHINGTON

CITY           SKY/WX    TMP DP  RH WIND       PRES   REMARKS
GILLETTE       CLEAR     26  11  52 NW15      30.37S WCI  14
SHERIDAN       PTCLDY    30  12  47 NW9       30.40F WCI  22
BUFFALO WY     CLOUDY    25  13  60 N6        30.39R WCI  18
CODY           CLOUDY    28  12  50 CALM      30.41R
YELLOWSTONE LA   N/A     21  12  68 SE3       30.52R
IDAHO FALLS    FOG       23  21  92 N7        30.64R VSB 1   WCI  15
SALMON         CLOUDY    19  12  73 SE6       30.63S WCI  11
BOISE          CLEAR     42  34  73 CALM      30.62S
SPOKANE        MOCLDY    38  31  76 N6        30.61S
$$

REGIONAL REPORTS...ALBERTA

CITY           SKY/WX    TMP DP  RH WIND       PRES   REMARKS
EDMONTON       PTCLDY    28  16  59 SW5       30.36R
CALGARY        PTCLDY    30   9  40 SE8       30.34F WCI  23
LETHBRIDGE     PTCLDY    36  16  44 SW13      30.38F WCI  27
MEDICINE HAT   CLEAR     30  16  55 SW3       30.43S
WATERTON GATE    N/A     37  18  44 SW29G41     N/A  WCI  25
CARDSTON         N/A     39  18  41 W12G17      N/A  WCI  32
$$

REGIONAL REPORTS...SASKATCHEWAN

CITY           SKY/WX    TMP DP  RH WIND       PRES   REMARKS
SWIFT CURRENT  CLEAR     25  18  74 W14       30.34S WCI  13
REGINA         PTCLDY    25  19  80 NW16G22   30.28R WCI  12
SASKATOON      PTCLDY    23  18  80 W10       30.32R WCI  12
CYPRESS HILLS    N/A     25   7  46 NW5         N/A
VAL MARIE        N/A     21  12  68 NW8         N/A  WCI  12
ASSINIBOIA       N/A     21  14  73 SW2         N/A
$$




USA.gov is the U.S. government's official web portal to all federal, state and local government web resources and services.